Regional Weather Roundup
Issued by NWS

Home | Current Version | Previous Version | Graphics & Text | Print | Product List | Glossary On
Versions: 1 2 3 4 5 6 7 8 9 10 11 12 13 14 15 16 17 18 19 20 21 22 23 24 25 26 27 28 29 30 31 32 33 34 35 36 37 38 39 40 41 42 43 44 45 46 47 48 49 50
000
ASUS43 KMKX 240911
RWRWI

WISCONSIN REGIONAL WEATHER ROUNDUP
NATIONAL WEATHER SERVICE MILWAUKEE/SULLIVAN WI
400 AM CDT FRI MAR 24 2017

NOTE: "FAIR" INDICATES FEW OR NO CLOUDS BELOW 12,000 FEET WITH NO
SIGNIFICANT WEATHER AND/OR OBSTRUCTIONS TO VISIBILITY.

WIZ001-002-006>008-014>016-023>028-241000-
NORTHWEST WISCONSIN

CITY           SKY/WX    TMP DP  RH WIND       PRES   REMARKS
SUPERIOR ARPT  MIX PCPN  32  32 100 CALM      29.91F VSB 3/4
ASHLAND        FOG       32  32 100 CALM      29.91F VSB 1/2
HAYWARD        CLOUDY    35  31  85 NE5       29.87F FOG     WCI  31
SIREN          CLOUDY    33  33  99 CALM      29.89R FOG
CUMBERLAND     CLOUDY    34  34 100 CALM      29.88R FOG
RICE LAKE      MIX PCPN  36  36  99 CALM      29.90R
CHETEK         HVY RAIN  36  36 100 CALM      29.88R
LADYSMITH      CLOUDY    35  35  98 E5        29.88S FOG     WCI  31
EAU CLAIRE     LGT RAIN  39  37  92 CALM      29.84F FOG
MENOMONIE      DRIZZLE   38  37  93 SE7       29.85F WCI  33
NEW RICHMOND   LGT RAIN  36  36 100 N3        29.86S
OSCEOLA        CLOUDY    37  37 100 N6        29.91R FOG     WCI  32
$$

WIZ003>005-009-010-017-018-241000-
NORTH CENTRAL WISCONSIN

CITY           SKY/WX    TMP DP  RH WIND       PRES   REMARKS
MANITOWISH WTR DRIZZLE   32  32 100 CALM      29.87R
ARBOR VITAE    MIX PCPN  34  32  94 CALM      29.85S
WOODRUFF       MIX PCPN  34  32  94 CALM      29.85S
RHINELANDER    LGT RAIN  33  32  96 CALM      29.87R FOG
EAGLE RIVER    MIX PCPN  32  32  99 CALM      29.86R
LAND O LAKES   MIX PCPN  33  32  98 CALM      29.86F
PHILLIPS       CLOUDY    34  33  97 CALM      29.86R
TOMAHAWK       CLOUDY    32  31  96 CALM      29.87S FOG
MEDFORD        DRIZZLE   34  33  97 SE5       29.85F WCI  30
MERRILL        CLOUDY    33  33 100 CALM      29.89R FOG
$$

WIZ029-030-035-036-043>047-241000-
CENTRAL WISCONSIN

CITY           SKY/WX    TMP DP  RH WIND       PRES   REMARKS
WAUSAU         LGT RAIN  34  34 100 NE3       29.88R FOG
MOSINEE        TSTM      34  34 100 CALM      29.88S
MARSHFIELD     RAIN      36  35  96 CALM      29.86F FOG
STEVENS POINT  RAIN      34  34 100 CALM      29.90R
WAUPACA        CLOUDY    37  35  90 N3        29.90R FOG
WAUTOMA        CLOUDY    38  37  97 NE5       29.88R WCI  34
WISC RAPIDS    LGT RAIN  38  38 100 N5        29.91R WCI  34
CAMP DOUGLAS   DRIZZLE   38  36  91 N6        29.88R WCI  34
$$

WIZ011>013-019>022-031-037>040-048>050-241000-
NORTHEAST WISCONSIN

CITY           SKY/WX    TMP DP  RH WIND       PRES   REMARKS
ANTIGO         CLOUDY    32  32 100 CALM      29.87S FOG
SHAWANO        CLOUDY    36  33  91 N3        29.89F FOG
OCONTO         CLOUDY    34  33  96 CALM      29.89F
STURGEON BAY   LGT RAIN  36  35  96 CALM      29.90F FOG
GREEN BAY      LGT RAIN  37  36  96 CALM      29.89F
MANITOWOC      CLOUDY    38  35  89 CALM      29.89F
APPLETON       CLOUDY    37  37 100 NW5       29.87S WCI  34
CLINTONVILLE   CLOUDY    34  32  93 CALM      29.91R
OSHKOSH        CLOUDY    38  35  89 N3        29.87F FOG
$$

WIZ032>034-041-042-053>061-241000-
SOUTHWEST WISCONSIN

CITY           SKY/WX    TMP DP  RH WIND       PRES   REMARKS
LA CROSSE      LGT RAIN  41  39  93 CALM      29.86R
SPARTA         CLOUDY    39  38  97 NE3       29.88S
VIROQUA        CLOUDY    41  38  89 CALM      29.84R
BOSCOBEL       CLOUDY    43  37  79 N3        29.83F
PRAIRIE DU CHI PTCLDY    43  37  77 E6        29.80F
PLATTEVILLE    CLOUDY    44  40  89 S10       29.82F
$$

WIZ056-057-062-063-064-067-068-241000-
SOUTH CENTRAL WISCONSIN

CITY           SKY/WX    TMP DP  RH WIND       PRES   REMARKS
REEDSBURG      CLOUDY    43  38  85 W5        29.84R
BARABOO/DELLS  CLOUDY    44  37  77 NW6       29.84R
LONE ROCK      CLOUDY    41  36  82 E5        29.83F
MINERAL POINT  CLOUDY    43  39  87 SE12      29.81F
MADISON        MOCLDY    43  37  79 S7        29.84F
MIDDLETON      PTCLDY    45  38  78 S8        29.84F
WATERTOWN      CLOUDY    43  38  83 S6        29.85F
MONROE         CLOUDY    43  37  81 S16       29.83F
JANESVILLE     PTCLDY    46  37  71 S7        29.85F
$$

WIZ051-052-058>065-066-070>072-241000-
SOUTHEAST WISCONSIN

CITY           SKY/WX    TMP DP  RH WIND       PRES   REMARKS
MILWAUKEE      MOCLDY    48  38  68 SW10      29.86F
WAUKESHA       CLOUDY    45  37  76 SW14G20   29.86F
MILWAUKEE/TIMM MOCLDY    45  36  70 SW8       29.86F
RACINE         PTCLDY    48  38  68 SW13      29.88F
KENOSHA        PTCLDY    47  38  71 S12       29.87F
FOND DU LAC    CLOUDY    38  34  85 N6        29.86F WCI  33
SHEBOYGAN      CLOUDY    36  34  92 N3        29.88F FOG
WEST BEND      PTCLDY    41  36  81 CALM      29.86F
JUNEAU         CLOUDY    42  37  81 S9        29.85F
$$

LSZ147-162-241000-
LAKE SUPERIOR

STATION/POSITION TIME  TEMP    WIND        PRES    WAVE
                       AIR SEA DIR/SP/G            HT/PER
                 (UTC) (F)     (DEG/KT/KT) (MB)    (FT/S)
DEVILS ISLAND    0900   33     210/  3/  3 1013.8F
PORT WING        0840   33      CALM  /  1 1013.2F
SAXON HARBOR     0840   33     200/  2/  3 1012.9F
$$

LMZ867-665-643>646-241000-
LAKE MICHIGAN

STATION/POSITION TIME  TEMP    WIND        PRES    WAVE
                       AIR SEA DIR/SP/G            HT/PER
                 (UTC) (F)     (DEG/KT/KT) (MB)    (FT/S)
CHAMBERS ISLAND  0840   35     120/  3/  4 1012.2F
NORTHPORT PIER   0840   36     150/  4/  4 1012.9F
SISTER BAY       0636   37        CALM       N/A
KEWAUNEE LAKESHO 0848   36      50/  2/  3 1012.1F
SHEBOYGAN LAKESH 0900   38     170/  5/  5 1012.3S
PORT WASHINGTON  0840   38     190/  3/  5 1012.5F
MILWAUKEE LAKESH 0850   47     200/  9/ 10   N/A
KENOSHA   LAKESH 0900   42     170/ 14/ 15 1011.9
$$

TC  - TEMPERATURE IN CELSIUS
VSB - VISIBILITY IN STATUTE MILES
WCI - WIND CHILL INDEX
HX  - HEAT INDEX




USA.gov is the U.S. government's official web portal to all federal, state and local government web resources and services.